SKYSAT-C18 (46180 NORAD) Tracking and Keplerian Element Data

This shows tracking and keplerian element data for the satellite.

Feedback or suggestion? Click here.




ElementValue
Catalog46180
NameSKYSAT-C18
Epoch Orbit1616
Epoch Day336.57390203
Epoch Year2020
RAAN279.481
Inclination52.9962
Eccentricity0.0010642
Argument of Perigee300.4267
Mean Anonmoly59.5692
Mean Motion15.58392623
Decay Rate0.0001582
L11 46180U 20057BR 20336.57390203 .00015820 00000-0 20995-3 0 9990
L22 46180 52.9962 279.4810 0010642 300.4267 59.5692 15.58392623 16164

Live tracking and technical data element details for SKYSAT-C18 (NORAD 46180). SKYSAT-C18 can be tracked NOW for your location showing map with azimuth and elevation plus other details from your city location.

Track the satellite on the map from your city or location and see movement details for azimuth, elevation, latitude, longitude, range, height, and movement on the map or in text.







IsCatalogInMostPopularTable: catalog: 46180, numindb: 18
Update: records affected: 1



GetName: 46180 SKYSAT-C18

Hit Count: updated at: Wed, 02 Dec 2020 19:16:08 GMT